TimeMST,TemperatureF,Dew PointF,Humidity,Sea Level PressureIn,VisibilityMPH,Wind Direction,Wind SpeedMPH,Gust SpeedMPH,PrecipitationIn,Events,Conditions,WindDirDegrees,DateUTC
12:07 AM,28.4,24.8,86,30.17,8.0,Calm,Calm,-,N/A,,Mostly Cloudy,0,2012-11-16 07:07:00
12:21 AM,28.4,26.6,93,30.17,7.0,Calm,Calm,-,N/A,,Scattered Clouds,0,2012-11-16 07:21:00
1:00 AM,24.8,24.8,100,30.15,2.5,Calm,Calm,-,N/A,,Clear,0,2012-11-16 08:00:00
1:06 AM,26.6,24.8,93,30.15,5.0,Calm,Calm,-,N/A,,Clear,0,2012-11-16 08:06:00
2:51 AM,28.9,26.1,89,30.16,7.0,NE,3.5,-,N/A,,Clear,50,2012-11-16 09:51:00
3:51 AM,28.9,27.0,92,30.13,6.0,WNW,5.8,-,N/A,,Clear,300,2012-11-16 10:51:00
5:51 AM,30.9,28.0,89,30.15,8.0,SSE,4.6,-,N/A,,Clear,150,2012-11-16 12:51:00
6:51 AM,30.0,28.9,96,30.14,7.0,SSW,4.6,-,N/A,,Clear,200,2012-11-16 13:51:00
7:51 AM,30.0,28.9,96,30.16,6.0,Calm,Calm,-,N/A,,Clear,0,2012-11-16 14:51:00
8:51 AM,33.1,30.0,89,30.16,6.0,Calm,Calm,-,N/A,,Clear,0,2012-11-16 15:51:00
9:51 AM,34.0,30.9,89,30.17,7.0,ENE,3.5,-,N/A,,Scattered Clouds,60,2012-11-16 16:51:00
10:51 AM,41.0,35.1,79,30.14,10.0,Variable,5.8,-,N/A,,Overcast,0,2012-11-16 17:51:00
11:51 AM,39.9,35.1,83,30.14,10.0,NNE,4.6,-,N/A,,Mostly Cloudy,30,2012-11-16 18:51:00
12:51 PM,43.0,35.1,74,30.10,10.0,NW,5.8,-,N/A,,Mostly Cloudy,320,2012-11-16 19:51:00
1:51 PM,46.9,34.0,61,30.09,10.0,ENE,6.9,-,N/A,,Overcast,60,2012-11-16 20:51:00
2:51 PM,48.9,33.1,54,30.07,10.0,North,4.6,-,N/A,,Overcast,360,2012-11-16 21:51:00
3:51 PM,46.9,36.0,66,30.08,10.0,West,4.6,-,N/A,,Overcast,280,2012-11-16 22:51:00
4:51 PM,45.0,36.0,71,30.09,10.0,Calm,Calm,-,N/A,,Scattered Clouds,0,2012-11-16 23:51:00
5:51 PM,44.1,36.0,73,30.09,10.0,SE,5.8,-,N/A,,Mostly Cloudy,130,2012-11-17 00:51:00
6:51 PM,42.1,36.0,79,30.11,10.0,WNW,5.8,-,N/A,,Overcast,300,2012-11-17 01:51:00
7:51 PM,41.0,35.1,79,30.12,10.0,Calm,Calm,-,N/A,,Overcast,0,2012-11-17 02:51:00
8:51 PM,42.1,35.1,76,30.10,10.0,Calm,Calm,-,N/A,,Overcast,0,2012-11-17 03:51:00
9:51 PM,39.9,35.1,83,30.12,10.0,West,6.9,-,N/A,,Overcast,280,2012-11-17 04:51:00
10:51 PM,39.9,35.1,83,30.10,10.0,East,3.5,-,N/A,,Overcast,100,2012-11-17 05:51:00